TimeCST,TemperatureF,Dew PointF,Humidity,Sea Level PressureIn,VisibilityMPH,Wind Direction,Wind SpeedMPH,Gust SpeedMPH,PrecipitationIn,Events,Conditions,WindDirDegrees,DateUTC
12:15 AM,42.3,38.7,87,30.29,10.0,North,5.8,-,N/A,,Overcast,350,2013-01-03 06:15:00
12:35 AM,42.3,38.7,87,30.29,7.0,NNW,6.9,-,N/A,,Overcast,340,2013-01-03 06:35:00
12:55 AM,42.1,38.3,86,30.28,7.0,North,10.4,-,N/A,,Overcast,350,2013-01-03 06:55:00
1:15 AM,42.1,38.3,86,30.28,7.0,North,9.2,-,N/A,,Overcast,350,2013-01-03 07:15:00
1:35 AM,42.3,38.3,86,30.28,7.0,North,8.1,-,N/A,,Overcast,350,2013-01-03 07:35:00
1:55 AM,42.3,38.1,85,30.28,7.0,North,8.1,-,N/A,,Overcast,360,2013-01-03 07:55:00
2:15 AM,42.4,37.9,84,30.28,10.0,North,6.9,-,N/A,,Overcast,360,2013-01-03 08:15:00
2:35 AM,42.8,37.6,82,30.28,10.0,North,8.1,-,N/A,,Overcast,360,2013-01-03 08:35:00
2:55 AM,42.8,37.4,81,30.28,10.0,North,8.1,-,N/A,,Overcast,360,2013-01-03 08:55:00
3:15 AM,42.8,37.2,81,30.28,10.0,North,9.2,-,N/A,,Overcast,360,2013-01-03 09:15:00
3:35 AM,42.8,37.0,80,30.29,10.0,North,9.2,-,N/A,,Overcast,350,2013-01-03 09:35:00
3:55 AM,42.8,36.9,80,30.28,10.0,North,8.1,16.1,N/A,,Overcast,360,2013-01-03 09:55:00
4:15 AM,42.8,37.2,81,30.29,10.0,North,6.9,-,N/A,,Overcast,360,2013-01-03 10:15:00
4:35 AM,42.8,36.9,80,30.28,10.0,North,8.1,-,N/A,,Overcast,350,2013-01-03 10:35:00
4:55 AM,42.8,37.0,80,30.29,10.0,North,8.1,-,N/A,,Overcast,360,2013-01-03 10:55:00
5:15 AM,42.8,36.9,80,30.28,10.0,North,9.2,16.1,N/A,,Overcast,360,2013-01-03 11:15:00
5:35 AM,42.8,37.4,81,30.28,10.0,North,8.1,-,N/A,,Overcast,350,2013-01-03 11:35:00
5:55 AM,42.8,37.4,81,30.29,10.0,North,8.1,-,N/A,,Overcast,360,2013-01-03 11:55:00
6:15 AM,42.8,37.4,81,30.30,10.0,North,8.1,-,N/A,,Overcast,360,2013-01-03 12:15:00
6:35 AM,42.6,37.6,82,30.31,7.0,North,6.9,16.1,N/A,,Light Drizzle,350,2013-01-03 12:35:00
6:55 AM,42.1,37.8,85,30.31,5.0,North,8.1,-,N/A,,Light Drizzle,350,2013-01-03 12:55:00
7:35 AM,42.6,37.4,82,30.33,7.0,North,8.1,-,N/A,,Overcast,350,2013-01-03 13:35:00
7:55 AM,43.0,36.7,78,30.33,10.0,North,9.2,-,N/A,,Overcast,360,2013-01-03 13:55:00
8:15 AM,43.2,36.7,78,30.35,10.0,North,8.1,-,N/A,,Overcast,350,2013-01-03 14:15:00
8:35 AM,43.2,36.9,78,30.35,7.0,North,8.1,-,N/A,,Overcast,350,2013-01-03 14:35:00
8:55 AM,43.5,36.9,77,30.36,10.0,North,10.4,-,N/A,,Overcast,350,2013-01-03 14:55:00
9:15 AM,44.1,36.9,76,30.36,10.0,NNW,10.4,-,N/A,,Overcast,340,2013-01-03 15:15:00
9:35 AM,44.2,36.7,75,30.37,10.0,NNW,10.4,-,N/A,,Overcast,340,2013-01-03 15:35:00
9:55 AM,44.1,37.6,78,30.37,7.0,NNW,9.2,-,N/A,,Overcast,340,2013-01-03 15:55:00
10:15 AM,44.6,37.4,76,30.37,10.0,North,11.5,-,N/A,,Overcast,350,2013-01-03 16:15:00
10:35 AM,45.0,37.8,76,30.37,10.0,NNW,10.4,16.1,N/A,,Overcast,340,2013-01-03 16:35:00
10:55 AM,45.1,38.3,77,30.38,7.0,NNW,12.7,-,N/A,,Overcast,340,2013-01-03 16:55:00
11:15 AM,44.8,38.7,79,30.38,5.0,NNW,13.8,-,N/A,,Haze,330,2013-01-03 17:15:00
11:35 AM,44.2,39.9,85,30.37,2.0,NNW,12.7,-,N/A,,Drizzle,340,2013-01-03 17:35:00
11:55 AM,44.1,40.1,86,30.37,3.0,NNW,11.5,-,N/A,,Light Drizzle,340,2013-01-03 17:55:00
12:15 PM,44.6,39.7,83,30.36,3.0,NNW,10.4,-,N/A,,Light Drizzle,340,2013-01-03 18:15:00
12:35 PM,44.8,39.7,82,30.34,5.0,NNW,12.7,-,N/A,,Haze,340,2013-01-03 18:35:00
12:55 PM,45.9,39.2,78,30.33,7.0,North,12.7,-,N/A,,Overcast,350,2013-01-03 18:55:00
1:15 PM,46.0,39.6,78,30.33,7.0,North,15.0,18.4,N/A,,Overcast,350,2013-01-03 19:15:00
1:35 PM,46.0,38.1,74,30.32,7.0,North,16.1,-,N/A,,Overcast,350,2013-01-03 19:35:00
1:55 PM,46.4,38.3,73,30.32,7.0,North,13.8,-,N/A,,Overcast,350,2013-01-03 19:55:00
2:15 PM,46.6,38.1,72,30.32,10.0,NNW,11.5,16.1,N/A,,Overcast,340,2013-01-03 20:15:00
2:35 PM,46.8,37.8,71,30.32,10.0,North,11.5,-,N/A,,Overcast,360,2013-01-03 20:35:00
2:55 PM,47.8,37.8,68,30.32,10.0,North,9.2,-,N/A,,Overcast,360,2013-01-03 20:55:00
3:15 PM,48.4,36.5,64,30.31,10.0,North,12.7,18.4,N/A,,Overcast,350,2013-01-03 21:15:00
3:35 PM,48.7,36.1,62,30.32,10.0,North,15.0,18.4,N/A,,Overcast,350,2013-01-03 21:35:00
3:55 PM,49.1,36.3,61,30.32,10.0,North,9.2,-,N/A,,Overcast,360,2013-01-03 21:55:00
4:15 PM,49.1,35.6,60,30.33,10.0,North,11.5,17.3,N/A,,Overcast,360,2013-01-03 22:15:00
4:35 PM,48.7,35.6,60,30.33,10.0,North,11.5,-,N/A,,Overcast,360,2013-01-03 22:35:00
4:55 PM,48.4,35.1,60,30.34,10.0,North,11.5,17.3,N/A,,Overcast,350,2013-01-03 22:55:00
5:15 PM,48.4,34.9,60,30.35,10.0,North,11.5,16.1,N/A,,Overcast,360,2013-01-03 23:15:00
5:35 PM,48.0,34.7,60,30.35,10.0,North,9.2,-,N/A,,Overcast,350,2013-01-03 23:35:00
6:15 PM,47.7,34.0,59,30.36,10.0,North,11.5,-,N/A,,Overcast,350,2013-01-04 00:15:00
6:35 PM,47.5,34.5,61,30.37,10.0,North,8.1,-,N/A,,Overcast,350,2013-01-04 00:35:00
6:55 PM,47.5,34.5,61,30.37,10.0,North,9.2,-,N/A,,Overcast,350,2013-01-04 00:55:00
7:15 PM,47.5,34.0,59,30.38,10.0,North,8.1,-,N/A,,Overcast,360,2013-01-04 01:15:00
7:35 PM,47.5,34.0,59,30.38,10.0,North,8.1,-,N/A,,Overcast,350,2013-01-04 01:35:00
7:55 PM,47.3,34.0,60,30.38,10.0,North,8.1,-,N/A,,Overcast,350,2013-01-04 01:55:00
8:15 PM,47.5,33.8,59,30.38,10.0,North,6.9,-,N/A,,Overcast,350,2013-01-04 02:15:00
8:35 PM,47.5,34.0,59,30.38,10.0,NNW,8.1,-,N/A,,Overcast,340,2013-01-04 02:35:00
8:55 PM,47.5,33.8,59,30.38,10.0,North,6.9,-,N/A,,Overcast,350,2013-01-04 02:55:00
9:15 PM,47.5,33.8,59,30.38,10.0,NNW,8.1,-,N/A,,Overcast,340,2013-01-04 03:15:00
9:35 PM,47.3,34.5,61,30.38,10.0,NNW,8.1,-,N/A,,Overcast,340,2013-01-04 03:35:00
9:55 PM,47.1,34.9,62,30.37,10.0,NNW,8.1,-,N/A,,Overcast,340,2013-01-04 03:55:00
10:15 PM,47.1,34.9,62,30.37,10.0,NNW,6.9,-,N/A,,Overcast,340,2013-01-04 04:15:00
10:35 PM,47.1,34.9,62,30.37,10.0,NNW,5.8,-,N/A,,Overcast,330,2013-01-04 04:35:00
10:55 PM,47.3,34.7,62,30.36,10.0,NNW,6.9,-,N/A,,Overcast,340,2013-01-04 04:55:00
11:15 PM,47.3,34.7,62,30.35,10.0,NNW,8.1,-,N/A,,Overcast,330,2013-01-04 05:15:00
11:35 PM,47.3,34.3,61,30.36,10.0,NW,8.1,-,N/A,,Overcast,320,2013-01-04 05:35:00
11:55 PM,47.1,34.2,61,30.36,10.0,NNW,9.2,-,N/A,,Overcast,330,2013-01-04 05:55:00